Meteopurmerend
purmerend
Purmerend - Baaienwijk



My webcam  My webcam


Onweer radar Meer informatie blitzortung!


Regen radar Meer informatie rain snow radar


Bezoek onze andere website:

CandyAppleRed WebdesignWebdesign Purmerend Candy Apple Red

MeteopurmerendBlog

Template documentation
and downloads



We konden geen weer-waarchuwingen ophalen. Ga rechtstreeks naar de Meteoalarm site : www.meteoalarm.eu en controleer daar .

15 daagse weersverwachting Sønderborg (DK)

  • Overzicht
  • Per uur
  • 15 dagen
  • Extra
  • Vergelijk
  • Kaarten
  • Dagkaart
  • Meer »
  • Info
  • Statistieken
  • Directe link
    Temp 6h Neerslag Wind  
 04:46     22:03    Daglengte: 17:17 Vandaag
08:00
20°
 
4
14:00
23°
 
4
20:00
22°
6.4 mm
4
 04:47     22:03    Daglengte: 17:16 Morgen
02:00
17°
 
4
08:00
18°
14.7 mm
4
warningclass
14:00
20°
16.2 mm
4
20:00
17°
9.9 mm
5
 04:47     22:03    Daglengte: 17:16 Dinsdag 28 Jun
02:00
15°
 
2
08:00
16°
 
2
14:00
21°
 
4
20:00
20°
 
2
Locatie info
Region: Syddanmark
Latitude: 54.9100°N
Longitude: 9.7900°E
17 masl
Postcode: 6400
Temp/Neerslag /Baro Onweer/Dauwpunt
    Temp Baro 1h Neerslag Dauwpunt Wind UV Bewolking  
 04:46     22:03    Daglengte: 17:17 Vandaag
04:00
18°
1013.4 hPa   17.4°
2
Windvlaag: 0.7 m/s
77%
05:00
18°
1013.0 hPa   17.3°
2
Windvlaag: 1.5 m/s
56%
06:00
18°
1013.2 hPa   17.5°
3
Windvlaag: 2.6 m/s
79%
07:00
19°
1013.4 hPa   16.7°
3
Windvlaag: 3.3 m/s
81%
08:00
20°
1013.6 hPa
14%
16.0°
4
Windvlaag: 3.8 m/s
82%
09:00
20°
1013.5 hPa   15.4°
4
Windvlaag: 3.6 m/s
78%
10:00
21°
1013.5 hPa   15.3°
4
Windvlaag: 3.7 m/s
74%
11:00
22°
1013.6 hPa   15.5°
4
Windvlaag: 4.6 m/s
56%
12:00
22°
1013.8 hPa
13%
16.4°
4
Windvlaag: 4.6 m/s
39%
13:00
23°
1013.8 hPa
24%
16.6°
5
Windvlaag: 4.6 m/s
53%
14:00
23°
1013.9 hPa
25%
17.4°
4
Windvlaag: 4.5 m/s
56%
15:00
24°
1014.0 hPa
33%
18.4°
3
Windvlaag: 6.7 m/s
48%
16:00
23°
1014.4 hPa
77%
19.5°
3
Windvlaag: 3.3 m/s
27%
17:00
23°
1014.4 hPa
79%
19.5°
2
Windvlaag: 2.5 m/s
43%
18:00
22°
1014.5 hPa 3.6 mm
81%
18.3°
2
Windvlaag: 5.5 m/s
33%
19:00
23°
1014.5 hPa 2.8 mm
66%
18.4°
3
Windvlaag: -0.5 m/s
68% warningclass
20:00
22°
1014.6 hPa
14%
18.0°
4
Windvlaag: -3.5 m/s
43%
21:00
20°
1014.9 hPa
14%
16.7°
3
Windvlaag: -2.7 m/s
70%
22:00
19°
1015.3 hPa
14%
15.6°
3
Windvlaag: -3.6 m/s
70%
23:00
18°
1015.5 hPa
14%
14.9°
3
Windvlaag: -2.6 m/s
39%
 04:47     22:03    Daglengte: 17:16 Morgen
00:00
18°
1015.5 hPa
14%
14.6°
4
Windvlaag: -5.1 m/s
22%
01:00
18°
1015.0 hPa
17%
15.0°
4
Windvlaag: -4.9 m/s
83%
02:00
17°
1014.7 hPa
19%
14.7°
4
Windvlaag: -4.7 m/s
79%
03:00
17°
1014.4 hPa
22%
14.9°
4
Windvlaag: -5 m/s
83%
04:00
17°
1014.1 hPa
14%
15.3°
4
Windvlaag: -4.4 m/s
53%
05:00
18°
1013.8 hPa
14%
15.9°
3
Windvlaag: -4 m/s
63%
06:00
18°
1013.2 hPa
15%
16.5°
3
Windvlaag: -3.5 m/s
63%
07:00
18°
1013.6 hPa 6.9 mm
77%
16.7°
4
Windvlaag: -2 m/s
85%
08:00
18°
1013.8 hPa 7.8 mm
82%
16.3°
4
Windvlaag: -3.3 m/s
84% warningclass
09:00
18°
1013.4 hPa 7.3 mm
82%
16.5°
4
Windvlaag: -3.7 m/s
85%
10:00
19°
1013.0 hPa
82%
16.9°
4
Windvlaag: -3.7 m/s
86%
11:00
20°
1013.4 hPa
81%
17.1°
4
Windvlaag: -4.8 m/s
79%
12:00
20°
1013.2 hPa
79%
17.0°
3
Windvlaag: -2.1 m/s
86%
13:00
20°
1013.1 hPa
71%
16.7°
4
Windvlaag: -3.8 m/s
80%
14:00
20°
1013.4 hPa 8.9 mm
81%
15.7°
4
Windvlaag: -2.4 m/s
86%
15:00
20°
1013.6 hPa 9.9 mm
80%
14.7°
5
Windvlaag: 0.1 m/s
86%
16:00
19°
1014.0 hPa
32%
13.5°
5
Windvlaag: -0.2 m/s
86%
17:00
20°
1013.9 hPa
68%
13.0°
6
Windvlaag: -1 m/s
72%
18:00
19°
1013.9 hPa
33%
12.5°
6
Windvlaag: -1.9 m/s
62%
19:00
18°
1014.8 hPa
70%
15.7°
5
Windvlaag: -1.7 m/s
68%
20:00
17°
1015.5 hPa
32%
13.6°
5
Windvlaag: -1.4 m/s
39%
21:00
17°
1016.2 hPa
16%
10.9°
4
Windvlaag: -0.7 m/s
63%
22:00
16°
1016.6 hPa
14%
12.0°
4
Windvlaag: -0.2 m/s
81%
23:00
16°
1017.6 hPa
34%
12.1°
3
Windvlaag: 0.3 m/s
97%
 04:47     22:03    Daglengte: 17:16 Dinsdag 28 Jun
00:00
16°
1018.2 hPa
34%
12.7°
3
Windvlaag: 0.5 m/s
91%
01:00
15°
1018.1 hPa
35%
13.6°
3
Windvlaag: 1.2 m/s
98%
02:00
15°
1018.3 hPa
95%
14.0°
2
Windvlaag: 1.7 m/s
94%
03:00
15°
1018.2 hPa
54%
14.1°
2
Windvlaag: 2.8 m/s
48%
04:00
14°
1018.5 hPa
22%
13.7°
2
Windvlaag: 3 m/s
38%
05:00
14°
1018.8 hPa
21%
12.5°
2
Windvlaag: 3.8 m/s
39%
06:00
14°
1019.2 hPa
21%
12.0°
3
Windvlaag: 4.7 m/s
18%
07:00
15°
1019.5 hPa
21%
12.0°
2
Windvlaag: 4.7 m/s
18%
08:00
16°
1019.8 hPa
21%
11.7°
2
Windvlaag: 6.8 m/s
8%
09:00
17°
1020.0 hPa
21%
11.5°
3
Windvlaag: 5.8 m/s
10%
10:00
18°
1020.2 hPa
21%
10.6°
3
Windvlaag: 5.9 m/s
7%
11:00
20°
1020.4 hPa
24%
11.7°
4
Windvlaag: 6.1 m/s
9%
12:00
20°
1020.3 hPa
29%
12.1°
4
Windvlaag: 5.6 m/s
24%
13:00
21°
1020.2 hPa
23%
12.3°
4
Windvlaag: 5.8 m/s
40%
14:00
21°
1020.1 hPa
22%
12.0°
4
Windvlaag: 4.9 m/s
49%
15:00
22°
1020.1 hPa
21%
11.7°
4
Windvlaag: 3.7 m/s
49%
16:00
22°
1020.1 hPa
21%
11.4°
3
Windvlaag: 3.3 m/s
8%
17:00
22°
1020.0 hPa
21%
10.4°
2
Windvlaag: 2.7 m/s
8%
18:00
21°
1020.0 hPa
21%
9.2°
3
Windvlaag: 2 m/s
7%
19:00
20°
1019.8 hPa
21%
9.1°
3
Windvlaag: 2.4 m/s
2%
20:00
20°
1019.7 hPa
21%
9.0°
2
Windvlaag: 1.4 m/s
1%
21:00
19°
1019.7 hPa
21%
12.8°
1
Windvlaag: 1.8 m/s
19%
22:00
17°
1019.8 hPa
21%
9.9°
1
Windvlaag: 1.1 m/s
42%
23:00
17°
1019.7 hPa
21%
10.2°
1
Windvlaag: 1 m/s
32%
 04:48     22:02    Daglengte: 17:14 Woensdag 29 Jun
00:00
16°
1019.8 hPa
21%
10.6°
1
Windvlaag: 0.8 m/s
33%
01:00
15°
1019.7 hPa
21%
10.8°
1
Windvlaag: 1.5 m/s
1%
02:00
14°
1019.2 hPa
21%
10.4°
1
Windvlaag: 1.1 m/s
31%
Temp/Neerslag /Baro Onweer/Dauwpunt
    Temp Baro Neerslag Dauwpunt Wind Bewolking  
 04:46     22:03    Daglengte: 17:17 Vandaag
05:00
18°
1013.0 hPa   17.3°
2
56%
08:00
20°
1013.6 hPa   16.0°
4
82%
11:00
22°
1013.6 hPa   15.5°
4
56%
14:00
23°
1013.9 hPa   17.4°
4
56%
17:00
23°
1014.4 hPa   19.5°
2
43%
20:00
22°
1014.6 hPa 6.4 mm 18.0°
4
43%
23:00
18°
1015.5 hPa   14.9°
3
39%
 04:47     22:03    Daglengte: 17:16 Morgen
02:00
17°
1014.7 hPa   14.7°
4
79%
05:00
18°
1013.8 hPa   15.9°
3
63%
08:00
18°
1013.8 hPa 14.7 mm 16.3°
4
84% warningclass
11:00
20°
1013.4 hPa 7.3 mm 17.1°
4
79%
14:00
20°
1013.4 hPa 8.9 mm 15.7°
4
86%
17:00
20°
1013.9 hPa 9.9 mm 13.0°
6
72%
20:00
17°
1015.5 hPa   13.6°
5
39%
23:00
16°
1017.6 hPa   12.1°
3
97%
 04:47     22:03    Daglengte: 17:16 Dinsdag 28 Jun
02:00
15°
1018.3 hPa   14.0°
2
94%
05:00
14°
1018.8 hPa   12.5°
2
39%
08:00
16°
1019.8 hPa   11.7°
2
8%
11:00
20°
1020.4 hPa   11.7°
4
9%
14:00
21°
1020.1 hPa   12.0°
4
49%
17:00
22°
1020.0 hPa   10.4°
2
8%
20:00
20°
1019.7 hPa   9.0°
2
1%
23:00
17°
1019.7 hPa   10.2°
1
32%
 04:48     22:02    Daglengte: 17:14 Woensdag 29 Jun
02:00
14°
1019.2 hPa   10.4°
1
31%
05:00
16°
1020.2 hPa 7.8 mm 12.1°
4
0%
08:00
18°
1019.9 hPa 7.8 mm 12.6°
4
0%
11:00
20°
1019.9 hPa 7.8 mm 10.5°
6
0%
14:00
21°
1019.4 hPa 7.8 mm 11.1°
6
0%
17:00
21°
1018.9 hPa 7.8 mm 12.9°
5
0%
20:00
19°
1017.7 hPa 7.8 mm 14.2°
4
0%
23:00
17°
1017.6 hPa 7.8 mm 11.8°
4
0%
 04:49     22:02    Daglengte: 17:13 Donderdag 30 Jun
02:00
16°
1017.2 hPa 7.8 mm 12.8°
4
0%
05:00
16°
1016.8 hPa 7.8 mm 14.4°
4
0%
08:00
18°
1016.6 hPa 7.8 mm 13.8°
4
0%
11:00
20°
1016.3 hPa 7.8 mm 14.2°
4
0%
14:00
21°
1015.6 hPa 7.8 mm 14.4°
4
0%
17:00
22°
1014.4 hPa 7.8 mm 13.7°
3
0%
20:00
20°
1013.5 hPa 7.8 mm 14.4°
4
0%
23:00
16°
1012.9 hPa 7.8 mm 14.7°
3
1%
 04:49     22:02    Daglengte: 17:13 Vrijdag 01 Jul
02:00
16°
1011.5 hPa 7.8 mm 15.2°
3
1%
05:00
16°
1010.4 hPa 7.8 mm 15.7°
4
0%
08:00
19°
1010.1 hPa 7.8 mm 16.7°
5
0%
11:00
22°
1010.0 hPa 7.8 mm 17.0°
4
0%
14:00
22°
1010.5 hPa 7.9 mm 17.0°
5
0%
17:00
20°
1012.5 hPa 8.0 mm 16.1°
7
1%
20:00
18°
1014.0 hPa 8.0 mm 12.7°
7
1%
23:00
15°
1015.2 hPa 8.0 mm 12.2°
6
1%
 04:50     22:01    Daglengte: 17:11 Zaterdag 02 Jul
02:00
13°
1015.7 hPa 8.0 mm 11.7°
4
1%
05:00
13°
1016.2 hPa 8.0 mm 11.6°
4
0%
08:00
16°
1017.1 hPa 8.0 mm 10.2°
5
0%
11:00
19°
1017.0 hPa 8.0 mm 9.7°
6
1%
14:00
20°
1017.7 hPa 8.2 mm 11.4°
7
1%
17:00
19°
1017.7 hPa 8.6 mm 10.0°
7
1%
20:00
18°
1017.6 hPa 8.6 mm 12.0°
5
1%
23:00
16°
1017.8 hPa 8.8 mm 12.6°
5
1%
 04:51     22:01    Daglengte: 17:10 Zondag 03 Jul
02:00
15°
1016.9 hPa 18.5 mm 13.2°
5
1%
08:00
16°
1015.7 hPa 19.5 mm 13.3°
7
0%
14:00
19°
1014.4 hPa 21.8 mm 13.3°
9
1%
20:00
17°
1014.3 hPa 24.5 mm 11.1°
7
1%
 04:52     22:00    Daglengte: 17:08 Maandag 04 Jul
02:00
15°
1013.4 hPa 24.6 mm 10.8°
6
1%
08:00
15°
1011.9 hPa 26.8 mm 12.0°
7
1%
14:00
19°
1012.6 hPa 29.1 mm 10.5°
11
1%
20:00
15°
1015.3 hPa 30.3 mm 9.8°
10
1%
 04:53     21:59    Daglengte: 17:06 Dinsdag 05 Jul
02:00
15°
1016.0 hPa 30.7 mm 11.6°
9
1%
08:00
16°
1016.9 hPa 31.2 mm 12.1°
8
1%
14:00
19°
1018.4 hPa 31.9 mm 12.2°
10
1%
20:00
16°
1018.5 hPa 33.1 mm 14.3°
7
1%
 04:54     21:59    Daglengte: 17:05 Woensdag 06 Jul
02:00
15°
1017.6 hPa 0.3 mm 12.1°
3
49%
08:00
16°
1017.5 hPa 0.5 mm 12.8°
3
57%
14:00
20°
1017.2 hPa 0.4 mm 13.3°
3
65%
20:00
19°
1016.3 hPa 0.4 mm 13.6°
2
57%
 04:55     21:58    Daglengte: 17:03 Donderdag 07 Jul
02:00
15°
1016.2 hPa 0.3 mm 12.7°
2
49%
08:00
16°
1015.8 hPa 0.6 mm 13.2°
3
56%
14:00
20°
1016.0 hPa 0.7 mm 13.7°
3
52%
20:00
19°
1015.5 hPa 0.8 mm 13.5°
3
40%
 04:56     21:57    Daglengte: 17:01 Vrijdag 08 Jul
02:00
15°
1015.8 hPa 0.4 mm 12.4°
2
44%
08:00
16°
1015.6 hPa 0.3 mm 12.7°
3
61%
14:00
20°
1015.5 hPa 0.8 mm 13.2°
4
60%
20:00
18°
1015.1 hPa 0.7 mm 12.6°
3
48%
 04:57     21:56    Daglengte: 16:59 Zaterdag 09 Jul
02:00
15°
1015.5 hPa 0.3 mm 12.0°
3
44%
08:00
16°
1014.9 hPa 0.2 mm 12.6°
4
41%
14:00
20°
1014.4 hPa 0.1 mm 13.3°
4
52%
20:00
19°
1013.7 hPa 0.8 mm 13.5°
4
46%
 04:59     21:55    Daglengte: 16:56 Zondag 10 Jul
02:00
15°
1013.3 hPa 0.2 mm 12.5°
2
53%
08:00
16°
1012.7 hPa 0.2 mm 12.8°
3
61%
14:00
20°
1012.8 hPa 0.1 mm 13.0°
4
62%
20:00
18°
1012.6 hPa 0.8 mm 12.5°
4
52%
 05:00     21:54    Daglengte: 16:54 Maandag 11 Jul
02:00
15°
1012.9 hPa 0.4 mm 11.8°
4
52%
  CAPE Lifted Index Hail Supercell Tornado SRH 3km CL BTM PRES CL TOP PRES Swiss DWD icon SMHI TS
 04:46     22:03    Daglengte: 17:17 Vandaag
04:00 0 J/kg -0.6 K 0 % 0 % 0 % 0 m²/s² 0 0 1.5 3
05:00 0 J/kg -0.9 K 0 % 0 % 0 % 0 m²/s² 0 0 0.87 3
06:00 0 J/kg -1.3 K 0 % 0 % 0 % 0 m²/s² 0 0 0.05 3
07:00 12 J/kg -1.5 K 0 % 0 % 0 % 0 m²/s² 0 0 -0.3 3
08:00 136 J/kg -1.0 K 0 % 0 % 0 % 0 m²/s² 0 0 -0.04 3
09:00 350 J/kg -1.7 K 0 % 0 % 0 % 0 m²/s² 0 0 -0.65 3
10:00 835 J/kg -3.5 K 0 % 0 % 0 % 0 m²/s² 0 0 -2.45 3
11:00 1149 J/kg -4.1 K 0 % 0 % 0 % 0 m²/s² 0 0 -3.11 3
12:00 1384 J/kg -4.4 K 0 % 0 % 0 % 0 m²/s² 0 0 -3.08 3
13:00 1571 J/kg -5.0 K 0 % 0 % 0 % 0 m²/s² 0 0 -3.59 3
14:00 1702 J/kg -5.5 K 0 % 0 % 0 % 0 m²/s² 0 0 -3.61 3
15:00 1650 J/kg -5.0 K 0 % 0 % 0 % 0 m²/s² 0 0 -3.8 3
16:00 1556 J/kg -4.8 K 0 % 0 % 0 % 0 m²/s² 0 0 -3.54 3
17:00 1017 J/kg -3.9 K 0 % 0 % 0 % 0 m²/s² 0 0 -3.87 3
18:00 709 J/kg -2.7 K 0 % 0 % 0 % 0 m²/s² 0 0 -1.5 80
19:00 618 J/kg -3.2 K 0 % 0 % 0 % 0 m²/s² 0 0 -2.66 80
20:00 380 J/kg -2.3 K 0 % 0 % 0 % 0 m²/s² 0 0 -1.91 3
21:00 0 J/kg -0.7 K 0 % 0 % 0 % 0 m²/s² 0 0 -0.7 3
22:00 0 J/kg -1.4 K 0 % 0 % 0 % 0 m²/s² 0 0 -1.04 3
23:00 0 J/kg -1.4 K 0 % 0 % 0 % 0 m²/s² 0 0 -0.2 3
 04:47     22:03    Daglengte: 17:16 Morgen
00:00 0 J/kg -1.4 K 0 % 0 % 0 % 0 m²/s² 0 0 -0.29 3
01:00 0 J/kg -0.7 K 0 % 0 % 0 % 0 m²/s² 0 0 0.32 3
02:00 1 J/kg -0.2 K 0 % 0 % 0 % 0 m²/s² 0 0 0.61 3
03:00 1 J/kg -0.8 K 0 % 0 % 0 % 0 m²/s² 0 0 -0.05 3
04:00 1 J/kg -1.1 K 0 % 0 % 0 % 0 m²/s² 0 0 -0.11 3
05:00 1 J/kg -1.4 K 0 % 0 % 0 % 0 m²/s² 0 0 -0.5 3
06:00 1 J/kg -1.5 K 0 % 0 % 0 % 0 m²/s² 0 0 -0.39 3
07:00 1 J/kg -2.5 K 0 % 0 % 0 % 0 m²/s² 0 0 -1.24 45
08:00 1 J/kg -2.4 K 0 % 0 % 0 % 0 m²/s² 0 0 -1.53 95
09:00 0 J/kg -2.3 K 0 % 0 % 0 % 0 m²/s² 0 0 -1.25 80
10:00 0 J/kg -1.7 K 0 % 0 % 0 % 0 m²/s² 0 0 -1.04 61
11:00 3 J/kg 0.2 K 0 % 0 % 0 % 0 m²/s² 0 0 0.5 61
12:00 3 J/kg 0.3 K 0 % 0 % 0 % 0 m²/s² 0 0 0.3 61
13:00 34 J/kg 0.7 K 0 % 0 % 0 % 0 m²/s² 0 0 0.91 3
14:00 70 J/kg 0.2 K 0 % 0 % 0 % 0 m²/s² 0 0 1.01 3
15:00 0 J/kg 0.1 K 0 % 0 % 0 % 0 m²/s² 0 0 2.29 80
16:00 0 J/kg 2.3 K 0 % 0 % 0 % 0 m²/s² 0 0 5.15 3
17:00 12 J/kg 3.1 K 0 % 0 % 0 % 0 m²/s² 0 0 6.01 3
18:00 11 J/kg 4.3 K 0 % 0 % 0 % 0 m²/s² 0 0 6.4 3
19:00 12 J/kg 4.5 K 0 % 0 % 0 % 0 m²/s² 0 0 6.09 3
20:00 2 J/kg 4.4 K 0 % 0 % 0 % 0 m²/s² 0 0 6.17 3
21:00 0 J/kg 4.8 K 0 % 0 % 0 % 0 m²/s² 0 0 5.94 3
22:00 0 J/kg 6.6 K 0 % 0 % 0 % 0 m²/s² 0 0 6.93 3
23:00 0 J/kg 6.1 K 0 % 0 % 0 % 0 m²/s² 0 0 6.31 3
 04:47     22:03    Daglengte: 17:16 Dinsdag 28 Jun
00:00 0 J/kg 6.8 K 0 % 0 % 0 % 0 m²/s² 0 0 7.01 3
01:00 0 J/kg 4.8 K 0 % 0 % 0 % 0 m²/s² 0 0 5.64 3
02:00 0 J/kg 5.6 K 0 % 0 % 0 % 0 m²/s² 0 0 7.16 3
03:00 0 J/kg 6.5 K 0 % 0 % 0 % 0 m²/s² 0 0 8.33 3
04:00 0 J/kg 6.0 K 0 % 0 % 0 % 0 m²/s² 0 0 7.83 2
05:00 0 J/kg 5.8 K 0 % 0 % 0 % 0 m²/s² 0 0 8.29 0
06:00 0 J/kg 5.7 K 0 % 0 % 0 % 0 m²/s² 0 0 10.5 0
07:00 0 J/kg 6.5 K 0 % 0 % 0 % 0 m²/s² 0 0 11.66 1
08:00 50 J/kg 6.7 K 0 % 0 % 0 % 0 m²/s² 0 0 11.86 1
09:00 74 J/kg 7.5 K 0 % 0 % 0 % 0 m²/s² 0 0 13.29 1
10:00 14 J/kg 8.9 K 0 % 0 % 0 % 0 m²/s² 0 0 15.26 1
11:00 56 J/kg 7.9 K 0 % 0 % 0 % 0 m²/s² 0 0 16.06 2
12:00 82 J/kg 7.5 K 0 % 0 % 0 % 0 m²/s² 0 0 16.38 2
13:00 50 J/kg 7.9 K 0 % 0 % 0 % 0 m²/s² 0 0 16.21 3
14:00 43 J/kg 8.2 K 0 % 0 % 0 % 0 m²/s² 0 0 15.94 3
15:00 35 J/kg 8.3 K 0 % 0 % 0 % 0 m²/s² 0 0 16.37 3
16:00 17 J/kg 8.3 K 0 % 0 % 0 % 0 m²/s² 0 0 15.59 2
17:00 9 J/kg 8.3 K 0 % 0 % 0 % 0 m²/s² 0 0 14.75 2
18:00 2 J/kg 8.7 K 0 % 0 % 0 % 0 m²/s² 0 0 14.82 1
19:00 0 J/kg 9.1 K 0 % 0 % 0 % 0 m²/s² 0 0 15.07 1
20:00 0 J/kg 9.2 K 0 % 0 % 0 % 0 m²/s² 0 0 15.17 0
21:00 0 J/kg 9.2 K 0 % 0 % 0 % 0 m²/s² 0 0 15.02 3
22:00 0 J/kg 9.5 K 0 % 0 % 0 % 0 m²/s² 0 0 15.32 3
23:00 0 J/kg 9.3 K 0 % 0 % 0 % 0 m²/s² 0 0 14.82 3
 04:48     22:02    Daglengte: 17:14 Woensdag 29 Jun
00:00 0 J/kg 9.0 K 0 % 0 % 0 % 0 m²/s² 0 0 14.52 3
01:00 0 J/kg 8.6 K 0 % 0 % 0 % 0 m²/s² 0 0 14.42 1
02:00 0 J/kg 8.5 K 0 % 0 % 0 % 0 m²/s² 0 0 14.32 3
Temp Baro Wind Neerslag
  EWN Forecast EWN WRFDA DWD ICON FMI HIRLAM MET Norway GFS
 04:46     22:03    Daglengte: 17:17 Vandaag
05:00 17.8° 1013.0 hPa 2.3 m/s 0.0 mm 15.3° 1012.4 hPa 2.6 m/s 0.4 mm 18.1° 1013.1 hPa 2.0 m/s -2.0 mm 16.8° 1013.1 hPa 1.8 m/s 0.0 mm 18.2° 1012.6 hPa 2.8 m/s
08:00 19.5° 1013.6 hPa 3.6 m/s 0.0 mm 20.7° 1012.9 hPa 2.9 m/s 0.6 mm 19.5° 1014.0 hPa 3.3 m/s 0.0 mm 19.6° 1013.4 hPa 3.7 m/s 0.0 mm 20.0° 1013.1 hPa 3.9 m/s
11:00 21.7° 1013.6 hPa 4.5 m/s 0.0 mm 24.8° 1013.3 hPa 3.0 m/s 0.6 mm 21.4° 1014.2 hPa 4.0 m/s 0.0 mm 22.6° 1013.4 hPa 4.4 m/s 0.0 mm 21.9° 1013.5 hPa 3.5 m/s
14:00 23.3° 1013.9 hPa 4.0 m/s 0.0 mm 25.4° 1013.3 hPa 1.5 m/s 1.5 mm 23.5° 1014.3 hPa 1.8 m/s 0.0 mm 23.9° 1013.9 hPa 4.4 m/s 0.0 mm 23.3° 1014.5 hPa 5.0 m/s
17:00 23.3° 1014.4 hPa 2.3 m/s 0.0 mm 22.0° 1013.9 hPa 2.0 m/s 10.8 mm 24.0° 1014.7 hPa 2.2 m/s 0.2 mm 23.7° 1014.5 hPa 2.3 m/s 0.0 mm 22.2° 1015.9 hPa 5.7 m/s
20:00 21.9° 1014.6 hPa 3.7 m/s 6.4 mm 21.6° 1013.5 hPa 2.6 m/s 36.3 mm 22.2° 1014.9 hPa 2.5 m/s 2.5 mm 22.1° 1015.0 hPa 4.1 m/s 0.0 mm 19.7° 1016.4 hPa 3.9 m/s
23:00 18.4° 1015.5 hPa 3.5 m/s 0.0 mm 17.3° 1014.6 hPa 2.1 m/s 93.4 mm 18.5° 1015.6 hPa 2.5 m/s 0.0 mm 18.2° 1016.2 hPa 3.5 m/s 0.0 mm 16.7° 1017.5 hPa 2.5 m/s
 04:47     22:03    Daglengte: 17:16 Morgen
02:00 17.4° 1014.7 hPa 4.0 m/s 0.0 mm 15.6° 1013.8 hPa 2.2 m/s 101.6 mm 17.3° 1014.9 hPa 2.1 m/s 0.0 mm 17.5° 1015.1 hPa 4.4 m/s 0.0 mm 15.7° 1015.9 hPa 4.1 m/s
05:00 17.5° 1013.8 hPa 3.4 m/s 0.0 mm 16.2° 1013.6 hPa 3.1 m/s 101.6 mm 17.7° 1014.0 hPa 1.0 m/s 0.0 mm 17.1° 1014.1 hPa 4.6 m/s 0.0 mm 15.7° 1015.7 hPa 3.9 m/s
08:00 17.7° 1013.8 hPa 3.8 m/s 14.7 mm 17.1° 1012.8 hPa 3.8 m/s 102.2 mm 18.4° 1014.1 hPa 0.7 m/s 2.0 mm 17.6° 1014.1 hPa 4.3 m/s 0.0 mm 16.3° 1014.8 hPa 3.8 m/s
11:00 19.8° 1013.4 hPa 3.6 m/s 7.3 mm 17.7° 1012.6 hPa 3.6 m/s 109.5 mm 20.3° 1013.5 hPa 1.4 m/s 0.9 mm 21.3° 1012.8 hPa 3.6 m/s 0.0 mm 15.9° 1014.0 hPa 6.0 m/s
14:00 20.0° 1013.4 hPa 3.9 m/s 8.9 mm 19.4° 1011.3 hPa 3.6 m/s 125.1 mm 19.8° 1014.0 hPa 3.4 m/s 0.3 mm 24.2° 1010.8 hPa 3.6 m/s 0.0 mm 18.4° 1014.4 hPa 3.2 m/s
17:00 19.5° 1013.9 hPa 5.8 m/s 9.9 mm 18.9° 1013.4 hPa 5.4 m/s 128.7 mm 18.8° 1015.0 hPa 3.9 m/s 0.3 mm 26.0° 1007.2 hPa 10.0 m/s 0.0 mm 17.0° 1015.1 hPa 5.5 m/s
20:00 17.2° 1015.5 hPa 5.4 m/s 0.0 mm 17.9° 1014.9 hPa 4.7 m/s 128.7 mm 17.5° 1016.1 hPa 4.1 m/s 0.0 mm 17.1° 1011.2 hPa 8.8 m/s 0.0 mm 15.2° 1017.2 hPa 5.3 m/s
23:00 15.9° 1017.6 hPa 3.3 m/s 0.0 mm 15.5° 1016.6 hPa 3.2 m/s 128.9 mm 15.9° 1017.6 hPa 3.8 m/s 0.0 mm 14.2° 1018.8 hPa 3.0 m/s
 04:47     22:03    Daglengte: 17:16 Dinsdag 28 Jun
02:00 14.8° 1018.3 hPa 2.2 m/s 0.0 mm 11.1° 1018.1 hPa 2.7 m/s 129.2 mm 15.0° 1018.3 hPa 2.1 m/s 0.0 mm 13.6° 1019.1 hPa 3.3 m/s
05:00 13.8° 1018.8 hPa 2.2 m/s 0.0 mm 11.7° 1018.2 hPa 2.8 m/s 129.2 mm 13.6° 1018.7 hPa 1.5 m/s 0.0 mm 12.2° 1019.7 hPa 3.0 m/s
08:00 15.8° 1019.8 hPa 2.2 m/s 0.0 mm 16.2° 1019.7 hPa 3.0 m/s 129.2 mm 15.8° 1019.9 hPa 2.0 m/s 0.0 mm 15.5° 1020.6 hPa 2.6 m/s
11:00 19.5° 1020.4 hPa 3.6 m/s 0.0 mm 19.2° 1019.9 hPa 4.7 m/s 129.2 mm 19.6° 1020.5 hPa 3.4 m/s 0.0 mm 19.4° 1021.1 hPa 3.3 m/s
14:00 21.4° 1020.1 hPa 3.9 m/s 0.0 mm 20.4° 1020.2 hPa 4.4 m/s 129.2 mm 21.6° 1020.1 hPa 3.7 m/s 0.0 mm 21.0° 1021.1 hPa 3.2 m/s
17:00 21.6° 1020.0 hPa 2.4 m/s 0.0 mm 20.9° 1020.4 hPa 2.7 m/s 129.2 mm 21.8° 1019.9 hPa 2.3 m/s 0.0 mm 21.1° 1021.0 hPa 3.9 m/s
20:00 20.1° 1019.7 hPa 1.6 m/s 0.0 mm 20.4° 1020.2 hPa 1.0 m/s 129.2 mm 20.0° 1019.6 hPa 1.7 m/s 0.0 mm 19.6° 1020.7 hPa 1.7 m/s
23:00 16.5° 1019.7 hPa 0.8 m/s 0.0 mm 14.2° 1020.2 hPa 0.9 m/s 129.2 mm 17.1° 1019.6 hPa 0.7 m/s 0.0 mm 15.4° 1021.0 hPa 2.3 m/s
 04:48     22:02    Daglengte: 17:14 Woensdag 29 Jun
02:00 14.1° 1019.2 hPa 1.2 m/s 0.0 mm 12.4° 1020.0 hPa 1.1 m/s 129.2 mm 14.5° 1018.9 hPa 1.2 m/s 0.0 mm 15.6° 1020.7 hPa 3.6 m/s
05:00 15.7° 1020.2 hPa 4.4 m/s 7.8 mm 15.7° 1020.2 hPa 4.4 m/s 7.8 mm
08:00 18.3° 1019.9 hPa 4.5 m/s 7.8 mm 18.3° 1019.9 hPa 4.5 m/s 7.8 mm
11:00 20.3° 1019.9 hPa 5.7 m/s 7.8 mm 20.3° 1019.9 hPa 5.7 m/s 7.8 mm
14:00 21.3° 1019.4 hPa 6.3 m/s 7.8 mm 21.3° 1019.4 hPa 6.3 m/s 7.8 mm
17:00 21.2° 1018.9 hPa 5.3 m/s 7.8 mm 21.2° 1018.9 hPa 5.3 m/s 7.8 mm
20:00 19.3° 1017.7 hPa 4.2 m/s 7.8 mm 19.3° 1017.7 hPa 4.2 m/s 7.8 mm
23:00 16.9° 1017.6 hPa 4.2 m/s 7.8 mm 16.9° 1017.6 hPa 4.2 m/s 7.8 mm
 04:49     22:02    Daglengte: 17:13 Donderdag 30 Jun
02:00 15.9° 1017.2 hPa 4.0 m/s 7.8 mm 15.9° 1017.2 hPa 4.0 m/s 7.8 mm
05:00 15.5° 1016.8 hPa 4.2 m/s 7.8 mm 15.5° 1016.8 hPa 4.2 m/s 7.8 mm
08:00 18.2° 1016.6 hPa 3.9 m/s 7.8 mm 18.2° 1016.6 hPa 3.9 m/s 7.8 mm
11:00 20.1° 1016.3 hPa 4.2 m/s 7.8 mm 20.1° 1016.3 hPa 4.2 m/s 7.8 mm
14:00 21.4° 1015.6 hPa 3.9 m/s 7.8 mm 21.4° 1015.6 hPa 3.9 m/s 7.8 mm
17:00 21.8° 1014.4 hPa 3.1 m/s 7.8 mm 21.8° 1014.4 hPa 3.1 m/s 7.8 mm
20:00 19.9° 1013.5 hPa 3.6 m/s 7.8 mm 19.9° 1013.5 hPa 3.6 m/s 7.8 mm
23:00 16.1° 1012.9 hPa 2.9 m/s 7.8 mm 16.1° 1012.9 hPa 2.9 m/s 7.8 mm
 04:49     22:02    Daglengte: 17:13 Vrijdag 01 Jul
02:00 15.9° 1011.5 hPa 3.5 m/s 7.8 mm 15.9° 1011.5 hPa 3.5 m/s 7.8 mm
05:00 16.3° 1010.4 hPa 3.6 m/s 7.8 mm 16.3° 1010.4 hPa 3.6 m/s 7.8 mm
08:00 18.9° 1010.1 hPa 4.6 m/s 7.8 mm 18.9° 1010.1 hPa 4.6 m/s 7.8 mm
11:00 21.8° 1010.0 hPa 4.1 m/s 7.8 mm 21.8° 1010.0 hPa 4.1 m/s 7.8 mm
14:00 22.0° 1010.5 hPa 4.7 m/s 7.9 mm 22.0° 1010.5 hPa 4.7 m/s 7.9 mm
17:00 19.6° 1012.5 hPa 7.5 m/s 8.0 mm 19.6° 1012.5 hPa 7.5 m/s 8.0 mm
20:00 17.9° 1014.0 hPa 7.0 m/s 8.0 mm 17.9° 1014.0 hPa 7.0 m/s 8.0 mm
23:00 14.7° 1015.2 hPa 5.5 m/s 8.0 mm 14.7° 1015.2 hPa 5.5 m/s 8.0 mm
 04:50     22:01    Daglengte: 17:11 Zaterdag 02 Jul
02:00 13.0° 1015.7 hPa 3.8 m/s 8.0 mm 13.0° 1015.7 hPa 3.8 m/s 8.0 mm
05:00 12.9° 1016.2 hPa 4.1 m/s 8.0 mm 12.9° 1016.2 hPa 4.1 m/s 8.0 mm
08:00 16.2° 1017.1 hPa 5.4 m/s 8.0 mm 16.2° 1017.1 hPa 5.4 m/s 8.0 mm
11:00 18.9° 1017.0 hPa 6.2 m/s 8.0 mm 18.9° 1017.0 hPa 6.2 m/s 8.0 mm
14:00 19.6° 1017.7 hPa 6.7 m/s 8.2 mm 19.6° 1017.7 hPa 6.7 m/s 8.2 mm
17:00 19.5° 1017.7 hPa 6.8 m/s 8.6 mm 19.5° 1017.7 hPa 6.8 m/s 8.6 mm
20:00 17.9° 1017.6 hPa 5.4 m/s 8.6 mm 17.9° 1017.6 hPa 5.4 m/s 8.6 mm
23:00 15.6° 1017.8 hPa 4.9 m/s 8.8 mm 15.6° 1017.8 hPa 4.9 m/s 8.8 mm
 04:51     22:01    Daglengte: 17:10 Zondag 03 Jul
02:00 14.5° 1016.9 hPa 4.8 m/s 9.7 mm 14.5° 1016.9 hPa 4.8 m/s 9.7 mm
08:00 15.8° 1015.7 hPa 7.0 m/s 9.7 mm 15.8° 1015.7 hPa 6.9 m/s 9.7 mm
14:00 19.2° 1014.4 hPa 8.8 m/s 11.6 mm 19.2° 1014.4 hPa 8.8 m/s 11.6 mm
20:00 16.7° 1014.3 hPa 7.2 m/s 12.2 mm 16.7° 1014.3 hPa 7.2 m/s 12.2 mm
 04:52     22:00    Daglengte: 17:08 Maandag 04 Jul
02:00 15.0° 1013.4 hPa 6.2 m/s 12.3 mm 15.0° 1013.3 hPa 6.2 m/s 12.3 mm
08:00 14.8° 1011.9 hPa 7.2 m/s 13.7 mm 14.8° 1011.9 hPa 7.2 m/s 13.7 mm
14:00 18.5° 1012.6 hPa 10.8 m/s 14.8 mm 18.5° 1012.6 hPa 10.8 m/s 14.8 mm
20:00 15.2° 1015.3 hPa 10.5 m/s 15.3 mm 15.2° 1015.3 hPa 10.5 m/s 15.3 mm
 04:53     21:59    Daglengte: 17:06 Dinsdag 05 Jul
02:00 14.6° 1016.0 hPa 8.8 m/s 15.4 mm 14.6° 1016.0 hPa 8.8 m/s 15.4 mm
08:00 15.9° 1016.9 hPa 8.4 m/s 15.6 mm 15.9° 1016.9 hPa 8.4 m/s 15.6 mm
14:00 18.9° 1018.4 hPa 9.8 m/s 16.0 mm 18.9° 1018.4 hPa 9.8 m/s 16.0 mm
20:00 16.3° 1018.5 hPa 7.5 m/s 16.8 mm 16.3° 1018.5 hPa 7.5 m/s 16.8 mm
 04:54     21:59    Daglengte: 17:05 Woensdag 06 Jul
02:00 14.6° 1017.6 hPa 2.6 m/s 0.3 mm
08:00 16.4° 1017.5 hPa 2.8 m/s 0.5 mm
14:00 20.0° 1017.2 hPa 2.8 m/s 0.4 mm
20:00 18.9° 1016.3 hPa 2.4 m/s 0.4 mm
 04:55     21:58    Daglengte: 17:03 Donderdag 07 Jul
02:00 15.2° 1016.2 hPa 2.3 m/s 0.3 mm
08:00 16.5° 1015.8 hPa 2.7 m/s 0.6 mm
14:00 19.9° 1016.0 hPa 3.1 m/s 0.7 mm
20:00 18.6° 1015.5 hPa 3.0 m/s 0.8 mm
 04:56     21:57    Daglengte: 17:01 Vrijdag 08 Jul
02:00 14.9° 1015.8 hPa 2.4 m/s 0.4 mm
08:00 16.3° 1015.6 hPa 2.9 m/s 0.3 mm
14:00 19.6° 1015.5 hPa 3.7 m/s 0.8 mm
20:00 18.3° 1015.1 hPa 3.5 m/s 0.7 mm
 04:57     21:56    Daglengte: 16:59 Zaterdag 09 Jul
02:00 14.9° 1015.5 hPa 2.7 m/s 0.3 mm
08:00 16.4° 1014.9 hPa 3.7 m/s 0.2 mm
14:00 19.7° 1014.4 hPa 4.4 m/s 0.1 mm
20:00 18.6° 1013.7 hPa 3.5 m/s 0.8 mm
 04:59     21:55    Daglengte: 16:56 Zondag 10 Jul
02:00 15.2° 1013.3 hPa 2.1 m/s 0.2 mm
08:00 16.2° 1012.7 hPa 2.9 m/s 0.2 mm
14:00 19.7° 1012.8 hPa 4.1 m/s 0.1 mm
20:00 18.0° 1012.6 hPa 4.4 m/s 0.8 mm
 05:00     21:54    Daglengte: 16:54 Maandag 11 Jul
02:00 15.0° 1012.9 hPa 4.0 m/s 0.4 mm
FMI Hirlam - 7.5 km EWN WRFDA - 12 km DWD ICON - 7 km GFS - 25 km Basiskaart






























































Updatetijd (Europe/Amsterdam) Resolutie Lengte Stap
FMI Hirlam 01:45, 07:45, 13:45, 19:45 7.5 km 49h 1h
EWN WRFDA 22:30, 04:30, 10:30, 16:30 12 km 73h 1h
DWD ICON 23:45, 05:45, 11:45, 17:45 7 km 75h 1h
GFS 02:15, 08:15, 14:15, 20:15 25 km 237h 3h
30+ mm
25-30 mm
20-25 mm
15-20 mm
10-15 mm
6-10 mm
4-6 mm
2-4 mm
1-2 mm
0.5-1 mm
0.2-0.5 mm
0.1-0.2 mm
30+ mm
25-30 mm
20-25 mm
15-20 mm
10-15 mm
6-10 mm
4-6 mm
2-4 mm
1-2 mm
0.5-1 mm
0.2-0.5 mm
0.1-0.2 mm
Sneeuwval
Natte sneeuw
Hagel
Vorst
30+ mm
25-30 mm
20-25 mm
15-20 mm
10-15 mm
6-10 mm
4-6 mm
2-4 mm
1-2 mm
0.5-1 mm
0.2-0.5 mm
0.1-0.2 mm
Sneeuwval
Natte sneeuw
Hagel
Vorst
Onweer
50 mm
40 mm
30 mm
26 mm
22 mm
18 mm
14 mm
10 mm
9 mm
8 mm
7 mm
6 mm
5 mm
4.5 mm
4 mm
3.5 mm
3 mm
2.5 mm
2 mm
1.5 mm
1 mm
0.8 mm
0.6 mm
0.4 mm
0.2 mm
0.05 mm
35°
30°
25°
20°
15°
10°
-5°
-10°
-15°
-20°
-25°
-30°
-35°
33> m/s
29 m/s
25 m/s
21 m/s
17 m/s
14 m/s
11 m/s
8 m/s
5 m/s
3 m/s
0 m/s
2600 J/kg
2400 J/kg
2200 J/kg
2000 J/kg
1800 J/kg
1600 J/kg
1400 J/kg
1200 J/kg
1000 J/kg
800 J/kg
600 J/kg
400 J/kg
200 J/kg
70 dBZ
65 dBZ
60 dBZ
55 dBZ
50 dBZ
45 dBZ
40 dBZ
35 dBZ
30 dBZ
25 dBZ
20 dBZ
15 dBZ
10 dBZ
5 dBZ
-1 K
-2 K
-3 K
-4 K
-5 K
-6 K
-7 K
-8 K
-9 K
950 m²/s²
900 m²/s²
850 m²/s²
800 m²/s²
750 m²/s²
700 m²/s²
650 m²/s²
600 m²/s²
550 m²/s²
500 m²/s²
450 m²/s²
400 m²/s²
350 m²/s²
300 m²/s²
250 m²/s²
200 m²/s²
150 m²/s²
100 m²/s²
46 m/s
44 m/s
42 m/s
40 m/s
38 m/s
36 m/s
34 m/s
32 m/s
30 m/s
28 m/s
26 m/s
24 m/s
22 m/s
20 m/s
16 m/s
12 m/s
8 m/s
4 m/s
30 m/s
28 m/s
26 m/s
24 m/s
22 m/s
20 m/s
18 m/s
16 m/s
14 m/s
12 m/s
10 m/s
8 m/s
6 m/s
4 m/s
2 m/s
3.0
2.8
2.6
2.4
2.2
2.0
1.8
1.6
1.4
1.2
1.0
0.8
0.6
0.4
0.2
15
14
13
12
11
10
9
8
7
6
5
4
3
2
1
90%
80%
70%
60%
50%
40%
30%
20%
10%
42
40
38
36
34
32
30
28
26
24
22
20
18
16
14
12
90+ cm
80-90 cm
70-80 cm
60-70 cm
50-60 cm
40-50 cm
30-40 cm
20-30 cm
10-20 cm
1-10 cm
Sneeuwval
Natte sneeuw
Regen